Time,TemperatureF,DewpointF,PressureIn,WindDirection,WindDirectionDegrees,WindSpeedMPH,WindSpeedGustMPH,Humidity,HourlyPrecipIn,Conditions,Clouds,dailyrainin,SoftwareType,DateUTC
2013-04-06 00:00:00,31.3,1.9,30.08,SE,135,4.6,4.6,28,0.00,CLR,,0.00,WeatherDisplay:10.37,2013-04-06 04:00:00,
2013-04-06 00:01:00,31.3,1.9,30.07,East,90,4.6,4.6,28,0.00,CLR,,0.00,WeatherDisplay:10.37,2013-04-06 04:01:00,
2013-04-06 00:02:00,31.3,1.9,30.07,East,90,4.6,4.6,28,0.00,CLR,,0.00,WeatherDisplay:10.37,2013-04-06 04:02:00,
2013-04-06 00:04:00,31.3,1.9,30.07,East,98,2.0,5.0,28,0.00,CLR,CLR,0.00,WeatherDisplay:10.37,2013-04-06 04:04:00,
2013-04-06 00:09:00,31.1,1.7,30.07,ENE,73,2.0,5.0,28,0.00,CLR,CLR,0.00,WeatherDisplay:10.37,2013-04-06 04:09:00,
2013-04-06 00:15:00,31.1,1.7,30.06,ESE,112,3.6,3.6,28,0.00,CLR,,0.00,WeatherDisplay:10.37,2013-04-06 04:15:00,
2013-04-06 00:21:00,30.9,1.6,30.12,ESE,112,3.6,3.6,28,0.00,CLR,,0.00,WeatherDisplay:10.37,2013-04-06 04:21:00,
2013-04-06 00:27:00,30.9,1.6,30.10,ESE,112,3.6,3.6,28,0.00,CLR,,0.00,WeatherDisplay:10.37,2013-04-06 04:27:00,
2013-04-06 00:32:00,30.9,1.6,30.11,SE,135,3.6,3.6,28,0.00,CLR,,0.00,WeatherDisplay:10.37,2013-04-06 04:32:00,
2013-04-06 00:37:00,30.9,1.6,30.11,ENE,67,3.6,3.6,28,0.00,CLR,,0.00,WeatherDisplay:10.37,2013-04-06 04:37:00,
2013-04-06 00:42:00,30.7,1.4,30.12,SE,135,4.3,4.3,28,0.00,CLR,,0.00,WeatherDisplay:10.37,2013-04-06 04:42:00,
2013-04-06 00:47:00,30.7,1.4,30.12,ESE,112,4.6,4.6,28,0.00,CLR,,0.00,WeatherDisplay:10.37,2013-04-06 04:47:00,
2013-04-06 00:52:00,30.6,1.3,30.05,East,90,4.6,4.6,28,0.00,CLR,,0.00,WeatherDisplay:10.37,2013-04-06 04:52:00,
2013-04-06 00:57:00,30.6,1.3,30.06,SE,135,4.6,4.6,28,0.00,CLR,,0.00,WeatherDisplay:10.37,2013-04-06 04:57:00,
2013-04-06 01:02:00,30.6,1.3,30.12,ESE,112,4.6,4.6,28,0.00,CLR,,0.00,WeatherDisplay:10.37,2013-04-06 05:02:00,
2013-04-06 01:07:00,30.4,1.1,30.11,ESE,112,4.6,4.6,28,0.00,CLR,,0.00,WeatherDisplay:10.37,2013-04-06 05:07:00,
2013-04-06 01:12:00,30.4,1.1,30.10,ESE,112,1.7,1.7,28,0.00,CLR,,0.00,WeatherDisplay:10.37,2013-04-06 05:12:00,
2013-04-06 01:17:00,30.4,1.1,30.11,East,90,2.4,2.4,28,0.00,CLR,,0.00,WeatherDisplay:10.37,2013-04-06 05:17:00,
2013-04-06 01:22:00,30.4,1.1,30.11,ESE,112,2.6,2.6,28,0.00,CLR,,0.00,WeatherDisplay:10.37,2013-04-06 05:22:00,
2013-04-06 01:27:00,30.2,0.9,30.12,East,90,2.8,2.8,28,0.00,CLR,,0.00,WeatherDisplay:10.37,2013-04-06 05:27:00,
2013-04-06 01:32:00,30.2,0.9,30.05,SE,135,2.8,2.8,28,0.00,CLR,,0.00,WeatherDisplay:10.37,2013-04-06 05:32:00,
2013-04-06 01:37:00,30.0,0.8,30.07,East,90,3.6,3.6,28,0.00,CLR,,0.00,WeatherDisplay:10.37,2013-04-06 05:37:00,
2013-04-06 01:42:00,30.0,0.8,30.06,East,90,3.6,3.6,28,0.00,CLR,,0.00,WeatherDisplay:10.37,2013-04-06 05:42:00,
2013-04-06 01:47:00,30.0,0.8,30.07,SE,135,3.6,3.6,28,0.00,CLR,,0.00,WeatherDisplay:10.37,2013-04-06 05:47:00,
2013-04-06 01:52:00,29.8,0.6,30.12,SE,135,3.6,3.6,28,0.00,CLR,,0.00,WeatherDisplay:10.37,2013-04-06 05:52:00,
2013-04-06 01:57:00,29.7,0.5,30.12,ESE,112,3.6,3.6,28,0.00,CLR,,0.00,WeatherDisplay:10.37,2013-04-06 05:57:00,
2013-04-06 02:03:00,29.7,0.5,30.07,East,90,3.6,3.6,28,0.00,CLR,,0.00,WeatherDisplay:10.37,2013-04-06 06:03:00,
2013-04-06 02:08:00,29.7,0.5,30.08,ENE,67,2.4,2.4,28,0.00,CLR,,0.00,WeatherDisplay:10.37,2013-04-06 06:08:00,
2013-04-06 02:13:00,29.7,0.5,30.07,ESE,112,5.8,5.8,28,0.00,CLR,,0.00,WeatherDisplay:10.37,2013-04-06 06:13:00,
2013-04-06 02:18:00,29.7,0.5,30.08,SSE,157,5.8,5.8,28,0.00,CLR,,0.00,WeatherDisplay:10.37,2013-04-06 06:18:00,
2013-04-06 02:23:00,29.8,0.6,30.07,SE,135,5.8,5.8,28,0.00,CLR,,0.00,WeatherDisplay:10.37,2013-04-06 06:23:00,
2013-04-06 02:28:00,29.8,0.6,30.07,SE,135,5.8,5.8,28,0.00,CLR,,0.00,WeatherDisplay:10.37,2013-04-06 06:28:00,
2013-04-06 02:33:00,30.0,0.8,30.13,East,90,5.8,5.8,28,0.00,CLR,,0.00,WeatherDisplay:10.37,2013-04-06 06:33:00,
2013-04-06 02:38:00,30.0,0.8,30.13,ESE,112,5.8,5.8,28,0.00,CLR,,0.00,WeatherDisplay:10.37,2013-04-06 06:38:00,
2013-04-06 02:43:00,29.8,0.6,30.12,East,90,5.8,5.8,28,0.00,CLR,,0.00,WeatherDisplay:10.37,2013-04-06 06:43:00,
2013-04-06 02:48:00,29.8,0.6,30.08,ESE,112,5.8,5.8,28,0.00,CLR,,0.00,WeatherDisplay:10.37,2013-04-06 06:48:00,
2013-04-06 02:53:00,29.8,0.6,30.08,SE,135,5.8,5.8,28,0.00,CLR,,0.00,WeatherDisplay:10.37,2013-04-06 06:53:00,
2013-04-06 02:58:00,29.7,0.5,30.08,ESE,112,5.8,5.8,28,0.00,CLR,,0.00,WeatherDisplay:10.37,2013-04-06 06:58:00,
2013-04-06 03:04:00,29.8,0.6,30.09,ESE,120,1.0,6.0,28,0.00,CLR,CLR,0.00,WeatherDisplay:10.37,2013-04-06 07:04:00,
2013-04-06 03:09:00,29.8,0.6,30.09,SE,128,5.0,6.0,28,0.00,CLR,CLR,0.00,WeatherDisplay:10.37,2013-04-06 07:09:00,
2013-04-06 03:14:00,29.8,0.6,30.08,SE,135,0.0,5.0,28,0.00,CLR,CLR,0.00,WeatherDisplay:10.37,2013-04-06 07:14:00,
2013-04-06 03:19:00,29.8,0.6,30.07,SE,137,2.0,5.0,28,0.00,CLR,CLR,0.00,WeatherDisplay:10.37,2013-04-06 07:19:00,
2013-04-06 03:24:00,30.0,0.8,30.08,SE,130,3.0,5.0,28,0.00,CLR,CLR,0.00,WeatherDisplay:10.37,2013-04-06 07:24:00,
2013-04-06 03:29:00,30.0,0.8,30.08,ESE,112,4.6,4.6,28,0.00,CLR,,0.00,WeatherDisplay:10.37,2013-04-06 07:29:00,
2013-04-06 03:35:00,30.2,0.9,30.09,ESE,112,4.6,4.6,28,0.00,CLR,,0.00,WeatherDisplay:10.37,2013-04-06 07:35:00,
2013-04-06 03:40:00,30.2,0.9,30.08,SE,135,4.6,4.6,28,0.00,CLR,,0.00,WeatherDisplay:10.37,2013-04-06 07:40:00,
2013-04-06 03:45:00,30.4,1.1,30.09,ESE,112,4.6,4.6,28,0.00,CLR,,0.00,WeatherDisplay:10.37,2013-04-06 07:45:00,
2013-04-06 03:50:00,30.6,1.3,30.09,East,90,4.6,4.6,28,0.00,CLR,,0.00,WeatherDisplay:10.37,2013-04-06 07:50:00,
2013-04-06 03:55:00,30.6,1.3,30.08,SSE,157,4.6,4.6,28,0.00,CLR,,0.00,WeatherDisplay:10.37,2013-04-06 07:55:00,
2013-04-06 04:00:00,30.6,1.3,30.08,East,90,4.6,4.6,28,0.00,CLR,,0.00,WeatherDisplay:10.37,2013-04-06 08:00:00,
2013-04-06 04:05:00,30.6,1.3,30.08,SSE,157,4.6,4.6,28,0.00,CLR,,0.00,WeatherDisplay:10.37,2013-04-06 08:05:00,
2013-04-06 04:10:00,30.6,1.3,30.07,SE,135,4.0,4.0,28,0.00,CLR,,0.00,WeatherDisplay:10.37,2013-04-06 08:10:00,
2013-04-06 04:15:00,30.7,1.4,30.09,ESE,112,4.0,4.0,28,0.00,CLR,,0.00,WeatherDisplay:10.37,2013-04-06 08:15:00,
2013-04-06 04:20:00,30.7,1.4,30.08,ENE,67,4.0,4.0,28,0.00,CLR,,0.00,WeatherDisplay:10.37,2013-04-06 08:20:00,
2013-04-06 04:25:00,30.7,1.4,30.09,SE,135,4.0,4.0,28,0.00,CLR,,0.00,WeatherDisplay:10.37,2013-04-06 08:25:00,
2013-04-06 04:30:00,30.7,1.4,30.09,SE,135,4.0,4.0,28,0.00,CLR,,0.00,WeatherDisplay:10.37,2013-04-06 08:30:00,
2013-04-06 04:35:00,30.7,1.4,30.08,East,90,4.6,4.6,28,0.00,CLR,,0.00,WeatherDisplay:10.37,2013-04-06 08:35:00,
2013-04-06 04:40:00,30.9,1.6,30.08,ESE,112,4.6,4.6,28,0.00,CLR,,0.00,WeatherDisplay:10.37,2013-04-06 08:40:00,
2013-04-06 04:45:00,30.9,1.6,30.08,East,90,4.6,4.6,28,0.00,CLR,,0.00,WeatherDisplay:10.37,2013-04-06 08:45:00,
2013-04-06 04:50:00,30.9,1.6,30.08,South,180,4.6,4.6,28,0.00,CLR,,0.00,WeatherDisplay:10.37,2013-04-06 08:50:00,
2013-04-06 04:55:00,30.9,1.6,30.08,SE,135,4.6,4.6,28,0.00,CLR,,0.00,WeatherDisplay:10.37,2013-04-06 08:55:00,
2013-04-06 05:00:00,30.9,1.6,30.08,ESE,112,4.6,4.6,28,0.00,CLR,,0.00,WeatherDisplay:10.37,2013-04-06 09:00:00,
2013-04-06 05:05:00,30.9,1.6,30.09,ESE,112,5.8,5.8,28,0.00,CLR,,0.00,WeatherDisplay:10.37,2013-04-06 09:05:00,
2013-04-06 05:10:00,30.9,1.6,30.08,East,90,1.7,1.7,28,0.00,CLR,,0.00,WeatherDisplay:10.37,2013-04-06 09:10:00,
2013-04-06 05:16:00,30.9,1.6,30.09,ESE,112,3.5,3.5,28,0.00,CLR,,0.00,WeatherDisplay:10.37,2013-04-06 09:16:00,
2013-04-06 05:21:00,30.9,1.6,30.08,ESE,112,3.5,3.5,28,0.00,CLR,,0.00,WeatherDisplay:10.37,2013-04-06 09:21:00,
2013-04-06 05:26:00,30.9,1.6,30.07,ESE,112,3.5,3.5,28,0.00,CLR,,0.00,WeatherDisplay:10.37,2013-04-06 09:26:00,
2013-04-06 05:31:00,31.1,1.7,30.07,SE,135,4.0,4.0,28,0.00,CLR,,0.00,WeatherDisplay:10.37,2013-04-06 09:31:00,
2013-04-06 05:37:00,31.1,1.7,30.07,SE,135,4.0,4.0,28,0.00,CLR,,0.00,WeatherDisplay:10.37,2013-04-06 09:37:00,
2013-04-06 05:43:00,31.1,1.7,30.08,East,90,4.0,4.0,28,0.00,CLR,,0.00,WeatherDisplay:10.37,2013-04-06 09:43:00,
2013-04-06 05:48:00,31.1,1.7,30.08,ESE,112,4.0,4.0,28,0.00,CLR,,0.00,WeatherDisplay:10.37,2013-04-06 09:48:00,
2013-04-06 05:53:00,31.3,1.9,30.09,SE,135,4.0,4.0,28,0.00,CLR,,0.00,WeatherDisplay:10.37,2013-04-06 09:53:00,
2013-04-06 05:58:00,31.5,2.0,30.09,SE,135,4.0,4.0,28,0.00,CLR,,0.00,WeatherDisplay:10.37,2013-04-06 09:58:00,
2013-04-06 06:04:00,31.5,2.0,30.08,SE,135,4.0,4.0,28,0.00,CLR,,0.00,WeatherDisplay:10.37,2013-04-06 10:04:00,
2013-04-06 06:09:00,31.5,2.0,30.07,SE,132,3.0,4.0,28,0.00,CLR,CLR,0.00,WeatherDisplay:10.37,2013-04-06 10:09:00,
2013-04-06 06:14:00,31.5,2.0,30.07,South,180,3.8,3.8,28,0.00,CLR,,0.00,WeatherDisplay:10.37,2013-04-06 10:14:00,
2013-04-06 06:19:00,31.5,2.0,30.08,SSE,150,1.0,4.0,28,0.00,CLR,CLR,0.00,WeatherDisplay:10.37,2013-04-06 10:19:00,
2013-04-06 06:24:00,31.5,2.1,30.09,SE,137,1.0,4.0,28,0.00,CLR,CLR,0.00,WeatherDisplay:10.37,2013-04-06 10:24:00,
2013-04-06 06:30:00,31.6,2.2,30.09,SW,225,3.8,3.8,28,0.00,CLR,,0.00,WeatherDisplay:10.37,2013-04-06 10:30:00,
2013-04-06 06:35:00,31.6,2.2,30.09,East,90,4.6,4.6,28,0.00,CLR,,0.00,WeatherDisplay:10.37,2013-04-06 10:35:00,
2013-04-06 06:40:00,31.6,2.2,30.09,ESE,112,4.6,4.6,28,0.00,CLR,,0.00,WeatherDisplay:10.37,2013-04-06 10:40:00,
2013-04-06 06:45:00,31.8,2.4,30.09,ESE,112,4.6,4.6,28,0.00,CLR,,0.00,WeatherDisplay:10.37,2013-04-06 10:45:00,
2013-04-06 06:50:00,31.8,2.4,30.08,South,180,4.6,4.6,28,0.00,CLR,,0.00,WeatherDisplay:10.37,2013-04-06 10:50:00,
2013-04-06 06:55:00,31.8,2.4,30.09,East,90,4.6,4.6,28,0.00,CLR,,0.00,WeatherDisplay:10.37,2013-04-06 10:55:00,
2013-04-06 07:00:00,31.6,2.2,30.09,ESE,112,4.6,4.6,28,0.00,CLR,,0.00,WeatherDisplay:10.37,2013-04-06 11:00:00,
2013-04-06 07:05:00,31.8,2.4,30.09,South,180,4.6,4.6,28,0.00,CLR,,0.00,WeatherDisplay:10.37,2013-04-06 11:05:00,
2013-04-06 07:10:00,31.8,2.4,30.09,SE,135,3.8,3.8,28,0.00,CLR,,0.00,WeatherDisplay:10.37,2013-04-06 11:10:00,
2013-04-06 07:16:00,31.8,2.4,30.10,South,180,3.8,0.0,28,0.00,CLR,,0.00,WeatherDisplay:10.37,2013-04-06 11:16:00,
2013-04-06 07:22:00,32.0,2.5,30.09,South,180,3.8,3.8,28,0.00,CLR,,0.00,WeatherDisplay:10.37,2013-04-06 11:22:00,
2013-04-06 07:27:00,32.2,2.7,30.09,South,180,3.8,4.5,28,0.00,CLR,,0.00,WeatherDisplay:10.37,2013-04-06 11:27:00,
2013-04-06 07:32:00,32.4,2.8,30.08,SE,135,4.6,4.6,28,0.00,CLR,,0.00,WeatherDisplay:10.37,2013-04-06 11:32:00,
2013-04-06 07:33:00,32.4,2.8,30.08,SE,135,4.6,4.6,28,0.00,CLR,,0.00,WeatherDisplay:10.37,2013-04-06 11:33:00,
2013-04-06 07:38:00,32.4,2.8,30.08,SE,135,4.7,4.7,28,0.00,CLR,,0.00,WeatherDisplay:10.37,2013-04-06 11:38:00,
2013-04-06 07:43:00,32.4,2.8,30.07,SSE,157,6.9,6.9,28,0.00,CLR,,0.00,WeatherDisplay:10.37,2013-04-06 11:43:00,
2013-04-06 07:48:00,32.5,3.0,30.09,SSE,157,6.9,6.9,28,0.00,CLR,,0.00,WeatherDisplay:10.37,2013-04-06 11:48:00,
2013-04-06 07:53:00,32.5,3.0,30.09,South,180,6.9,6.9,28,0.00,CLR,,0.00,WeatherDisplay:10.37,2013-04-06 11:53:00,
2013-04-06 07:58:00,32.5,3.0,30.10,South,180,6.9,6.9,28,0.00,CLR,,0.00,WeatherDisplay:10.37,2013-04-06 11:58:00,
2013-04-06 08:03:00,32.7,3.1,30.09,SSE,157,6.9,6.9,28,0.00,CLR,,0.00,WeatherDisplay:10.37,2013-04-06 12:03:00,
2013-04-06 08:08:00,32.7,3.1,30.08,SSE,157,4.6,4.6,28,0.00,CLR,,0.00,WeatherDisplay:10.37,2013-04-06 12:08:00,
2013-04-06 08:13:00,32.9,3.3,30.08,SE,135,4.6,4.6,28,0.00,CLR,,0.00,WeatherDisplay:10.37,2013-04-06 12:13:00,
2013-04-06 08:18:00,32.9,3.3,30.08,ESE,112,4.6,4.6,28,0.00,CLR,,0.00,WeatherDisplay:10.37,2013-04-06 12:18:00,
2013-04-06 08:24:00,33.1,3.5,30.07,SSE,157,5.8,5.8,28,0.00,CLR,,0.00,WeatherDisplay:10.37,2013-04-06 12:24:00,
2013-04-06 08:29:00,33.3,3.6,30.08,South,180,5.8,5.8,28,0.00,CLR,,0.00,WeatherDisplay:10.37,2013-04-06 12:29:00,
2013-04-06 08:34:00,33.4,3.8,30.08,ENE,67,5.8,5.8,28,0.00,CLR,,0.00,WeatherDisplay:10.37,2013-04-06 12:34:00,
2013-04-06 08:39:00,33.6,3.9,30.09,SE,135,5.9,5.9,28,0.00,CLR,,0.00,WeatherDisplay:10.37,2013-04-06 12:39:00,
2013-04-06 08:44:00,33.8,4.1,30.09,ENE,67,5.9,5.9,28,0.00,CLR,,0.00,WeatherDisplay:10.37,2013-04-06 12:44:00,
2013-04-06 08:49:00,33.8,4.1,30.09,SSE,157,9.2,9.2,28,0.00,CLR,,0.00,WeatherDisplay:10.37,2013-04-06 12:49:00,
2013-04-06 08:54:00,34.0,4.2,30.08,SE,145,2.0,9.0,28,0.00,CLR,CLR,0.00,WeatherDisplay:10.37,2013-04-06 12:54:00,
2013-04-06 08:59:00,34.2,4.4,30.07,SSE,150,6.0,9.0,28,0.00,CLR,CLR,0.00,WeatherDisplay:10.37,2013-04-06 12:59:00,
2013-04-06 09:04:00,34.0,4.2,30.08,ESE,123,5.0,9.0,28,0.00,CLR,CLR,0.00,WeatherDisplay:10.37,2013-04-06 13:04:00,
2013-04-06 09:10:00,34.0,4.2,30.08,SE,135,5.8,5.8,28,0.00,CLR,,0.00,WeatherDisplay:10.37,2013-04-06 13:10:00,
2013-04-06 09:15:00,34.0,4.2,30.09,ESE,112,5.8,5.8,28,0.00,CLR,,0.00,WeatherDisplay:10.37,2013-04-06 13:15:00,
2013-04-06 09:22:00,34.0,4.2,30.08,East,90,6.1,6.1,28,0.00,CLR,,0.00,WeatherDisplay:10.37,2013-04-06 13:22:00,
2013-04-06 09:28:00,34.3,4.5,30.07,SSE,157,7.1,7.1,28,0.00,CLR,,0.00,WeatherDisplay:10.37,2013-04-06 13:28:00,
2013-04-06 09:33:00,34.3,4.5,30.06,East,90,7.1,7.9,28,0.00,CLR,,0.00,WeatherDisplay:10.37,2013-04-06 13:33:00,
2013-04-06 09:38:00,34.3,4.5,30.12,ESE,112,8.1,8.1,28,0.00,CLR,,0.00,WeatherDisplay:10.37,2013-04-06 13:38:00,
2013-04-06 09:43:00,34.3,4.5,30.05,ESE,112,8.1,8.1,28,0.00,CLR,,0.00,WeatherDisplay:10.37,2013-04-06 13:43:00,
2013-04-06 09:48:00,34.7,4.9,30.05,South,180,8.1,8.1,28,0.00,CLR,,0.00,WeatherDisplay:10.37,2013-04-06 13:48:00,
2013-04-06 09:53:00,35.1,5.2,30.05,South,180,8.1,8.1,28,0.00,CLR,,0.00,WeatherDisplay:10.37,2013-04-06 13:53:00,
2013-04-06 09:58:00,35.2,5.3,30.06,South,180,8.1,8.1,28,0.00,CLR,,0.00,WeatherDisplay:10.37,2013-04-06 13:58:00,
2013-04-06 10:03:00,35.4,5.5,30.06,East,90,8.1,8.1,28,0.00,CLR,,0.00,WeatherDisplay:10.37,2013-04-06 14:03:00,
2013-04-06 10:08:00,35.4,5.5,30.06,ENE,67,2.6,2.6,28,0.00,CLR,,0.00,WeatherDisplay:10.37,2013-04-06 14:08:00,
2013-04-06 10:14:00,35.2,5.3,30.06,SW,225,4.7,4.7,28,0.00,CLR,,0.00,WeatherDisplay:10.37,2013-04-06 14:14:00,
2013-04-06 10:19:00,35.1,5.2,30.05,SSE,157,9.2,9.2,28,0.00,CLR,,0.00,WeatherDisplay:10.37,2013-04-06 14:19:00,
2013-04-06 10:24:00,35.2,5.3,30.05,South,180,9.2,9.2,28,0.00,CLR,,0.00,WeatherDisplay:10.37,2013-04-06 14:24:00,
2013-04-06 10:29:00,35.3,5.4,30.06,SSE,161,6.0,9.0,28,0.00,CLR,CLR,0.00,WeatherDisplay:10.37,2013-04-06 14:29:00,
2013-04-06 10:35:00,35.6,5.6,30.05,ESE,112,9.2,9.2,28,0.00,CLR,,0.00,WeatherDisplay:10.37,2013-04-06 14:35:00,
2013-04-06 10:41:00,35.8,5.8,30.05,SSE,157,9.2,9.2,28,0.00,CLR,,0.00,WeatherDisplay:10.37,2013-04-06 14:41:00,
2013-04-06 10:46:00,36.7,6.6,30.05,SE,135,9.2,9.2,28,0.00,CLR,,0.00,WeatherDisplay:10.37,2013-04-06 14:46:00,
2013-04-06 10:52:00,36.9,6.7,30.05,ESE,112,9.2,9.2,28,0.00,CLR,,0.00,WeatherDisplay:10.37,2013-04-06 14:52:00,
2013-04-06 10:57:00,36.7,6.6,30.05,South,180,9.2,9.2,28,0.00,CLR,,0.00,WeatherDisplay:10.37,2013-04-06 14:57:00,
2013-04-06 11:02:00,37.0,6.9,30.11,SSW,202,9.2,9.2,28,0.00,CLR,,0.00,WeatherDisplay:10.37,2013-04-06 15:02:00,
2013-04-06 11:08:00,37.4,7.2,30.10,SE,135,9.2,9.2,28,0.00,CLR,,0.00,WeatherDisplay:10.37,2013-04-06 15:08:00,
2013-04-06 11:13:00,37.4,7.2,30.04,South,180,8.1,8.1,28,0.00,CLR,,0.00,WeatherDisplay:10.37,2013-04-06 15:13:00,
2013-04-06 11:18:00,37.4,7.2,30.05,South,180,8.1,8.1,28,0.00,CLR,,0.00,WeatherDisplay:10.37,2013-04-06 15:18:00,
2013-04-06 11:24:00,37.6,7.4,30.04,South,180,8.1,8.1,28,0.00,CLR,,0.00,WeatherDisplay:10.37,2013-04-06 15:24:00,
2013-04-06 11:29:00,37.6,7.4,30.04,SE,135,8.4,8.4,28,0.00,CLR,,0.00,WeatherDisplay:10.37,2013-04-06 15:29:00,
2013-04-06 11:34:00,37.8,7.5,30.04,South,180,8.4,8.4,28,0.00,CLR,,0.00,WeatherDisplay:10.37,2013-04-06 15:34:00,
2013-04-06 11:39:00,38.3,8.0,30.04,South,180,8.4,8.4,28,0.00,CLR,,0.00,WeatherDisplay:10.37,2013-04-06 15:39:00,
2013-04-06 11:44:00,38.7,8.3,30.04,SSE,157,9.2,9.2,28,0.00,CLR,,0.00,WeatherDisplay:10.37,2013-04-06 15:44:00,
2013-04-06 11:49:00,39.2,8.8,30.04,East,90,9.2,9.2,28,0.00,CLR,,0.00,WeatherDisplay:10.37,2013-04-06 15:49:00,
2013-04-06 11:54:00,39.4,8.9,30.04,ESE,116,3.0,9.0,28,0.00,CLR,CLR,0.00,WeatherDisplay:10.37,2013-04-06 15:54:00,
2013-04-06 11:59:00,40.3,9.7,30.04,SSE,167,5.0,9.0,28,0.00,CLR,CLR,0.00,WeatherDisplay:10.37,2013-04-06 15:59:00,
2013-04-06 12:04:00,40.5,9.9,30.05,South,172,6.0,9.0,28,0.00,CLR,CLR,0.00,WeatherDisplay:10.37,2013-04-06 16:04:00,
2013-04-06 12:10:00,40.5,9.9,30.05,SE,140,9.0,9.0,28,0.00,CLR,CLR,0.00,WeatherDisplay:10.37,2013-04-06 16:10:00,
2013-04-06 12:15:00,41.5,10.8,30.05,SE,135,9.2,9.2,28,0.00,CLR,,0.00,WeatherDisplay:10.37,2013-04-06 16:15:00,
2013-04-06 12:20:00,41.5,10.8,30.05,SE,135,10.4,10.4,28,0.00,CLR,,0.00,WeatherDisplay:10.37,2013-04-06 16:20:00,
2013-04-06 12:25:00,42.6,11.7,30.04,NE,45,10.4,10.4,28,0.00,CLR,,0.00,WeatherDisplay:10.37,2013-04-06 16:25:00,
2013-04-06 12:30:00,42.8,11.9,30.05,ESE,112,10.4,10.4,28,0.00,CLR,,0.00,WeatherDisplay:10.37,2013-04-06 16:30:00,
2013-04-06 12:35:00,43.2,12.2,30.04,SSE,157,10.4,10.4,28,0.00,CLR,,0.00,WeatherDisplay:10.37,2013-04-06 16:35:00,
2013-04-06 12:40:00,43.2,12.2,30.04,South,180,10.4,10.4,28,0.00,CLR,,0.00,WeatherDisplay:10.37,2013-04-06 16:40:00,
2013-04-06 12:45:00,43.0,12.0,30.03,SSW,202,10.4,10.4,28,0.00,CLR,,0.00,WeatherDisplay:10.37,2013-04-06 16:45:00,
2013-04-06 12:50:00,43.0,12.0,30.02,SSW,202,10.4,10.4,28,0.00,CLR,,0.00,WeatherDisplay:10.37,2013-04-06 16:50:00,
2013-04-06 12:55:00,43.0,12.0,30.03,SE,135,10.4,10.4,28,0.00,CLR,,0.00,WeatherDisplay:10.37,2013-04-06 16:55:00,
2013-04-06 13:00:00,43.0,12.0,30.03,SE,135,10.4,10.4,28,0.00,CLR,,0.00,WeatherDisplay:10.37,2013-04-06 17:00:00,
2013-04-06 13:05:00,43.3,12.4,30.03,South,180,10.4,10.4,28,0.00,CLR,,0.00,WeatherDisplay:10.37,2013-04-06 17:05:00,
2013-04-06 13:10:00,43.9,12.8,30.02,South,180,6.3,6.3,28,0.00,CLR,,0.00,WeatherDisplay:10.37,2013-04-06 17:10:00,
2013-04-06 13:15:00,44.1,13.0,30.02,South,180,8.1,8.1,28,0.00,CLR,,0.00,WeatherDisplay:10.37,2013-04-06 17:15:00,
2013-04-06 13:22:00,44.2,13.1,30.02,South,180,8.1,8.1,28,0.00,CLR,,0.00,WeatherDisplay:10.37,2013-04-06 17:22:00,
2013-04-06 13:27:00,44.6,13.5,30.02,South,180,9.5,9.5,28,0.00,CLR,,0.00,WeatherDisplay:10.37,2013-04-06 17:27:00,
2013-04-06 13:32:00,44.4,13.3,30.02,South,180,9.5,9.5,28,0.00,CLR,,0.00,WeatherDisplay:10.37,2013-04-06 17:32:00,
2013-04-06 13:37:00,44.6,13.5,30.02,SSE,157,9.5,9.5,28,0.00,CLR,,0.00,WeatherDisplay:10.37,2013-04-06 17:37:00,
2013-04-06 13:43:00,44.6,13.5,29.96,SE,135,9.5,9.5,28,0.00,CLR,,0.00,WeatherDisplay:10.37,2013-04-06 17:43:00,
2013-04-06 13:49:00,44.4,13.3,29.96,SW,225,10.4,10.4,28,0.00,CLR,,0.00,WeatherDisplay:10.37,2013-04-06 17:49:00,
2013-04-06 13:54:00,44.4,13.3,29.95,SW,225,10.4,10.4,28,0.00,CLR,,0.00,WeatherDisplay:10.37,2013-04-06 17:54:00,
2013-04-06 13:59:00,44.6,13.5,29.95,SSW,202,10.4,10.4,28,0.00,CLR,,0.00,WeatherDisplay:10.37,2013-04-06 17:59:00,
2013-04-06 14:04:00,44.8,13.6,29.94,South,189,7.0,10.0,28,0.00,CLR,CLR,0.00,WeatherDisplay:10.37,2013-04-06 18:04:00,
2013-04-06 14:10:00,45.0,13.8,29.94,SSE,157,5.8,5.8,28,0.00,CLR,,0.00,WeatherDisplay:10.37,2013-04-06 18:10:00,
2013-04-06 14:15:00,45.0,13.8,29.94,ESE,112,9.2,9.2,28,0.00,CLR,,0.00,WeatherDisplay:10.37,2013-04-06 18:15:00,
2013-04-06 14:20:00,45.9,14.5,29.94,SSE,157,9.5,9.5,28,0.00,CLR,,0.00,WeatherDisplay:10.37,2013-04-06 18:20:00,
2013-04-06 14:25:00,46.2,14.9,29.92,SSE,157,9.7,9.7,28,0.00,CLR,,0.00,WeatherDisplay:10.37,2013-04-06 18:25:00,
2013-04-06 14:30:00,46.9,15.5,29.99,SSE,157,9.7,9.7,28,0.00,CLR,,0.00,WeatherDisplay:10.37,2013-04-06 18:30:00,
2013-04-06 14:35:00,46.9,15.5,29.98,SSE,157,9.7,9.7,28,0.00,CLR,,0.00,WeatherDisplay:10.37,2013-04-06 18:35:00,
2013-04-06 14:40:00,47.5,15.9,29.96,SSE,157,9.7,9.7,28,0.00,CLR,,0.00,WeatherDisplay:10.37,2013-04-06 18:40:00,
2013-04-06 14:45:00,47.3,15.8,29.95,SSE,157,10.9,10.9,28,0.00,CLR,,0.00,WeatherDisplay:10.37,2013-04-06 18:45:00,
2013-04-06 14:50:00,47.3,15.8,29.94,SSW,202,10.9,10.9,28,0.00,CLR,,0.00,WeatherDisplay:10.37,2013-04-06 18:50:00,
2013-04-06 14:55:00,46.9,15.5,29.94,SE,135,12.9,12.9,28,0.00,CLR,,0.00,WeatherDisplay:10.37,2013-04-06 18:55:00,
2013-04-06 15:00:00,47.3,15.8,29.93,SE,135,12.9,12.9,28,0.00,CLR,,0.00,WeatherDisplay:10.37,2013-04-06 19:00:00,
2013-04-06 15:06:00,48.0,16.4,29.93,South,180,12.9,12.9,28,0.00,CLR,,0.00,WeatherDisplay:10.37,2013-04-06 19:06:00,
2013-04-06 15:11:00,48.4,16.7,29.93,South,180,6.9,8.1,28,0.00,CLR,,0.00,WeatherDisplay:10.37,2013-04-06 19:11:00,
2013-04-06 15:17:00,48.4,16.7,29.94,SW,225,8.1,8.1,28,0.00,CLR,,0.00,WeatherDisplay:10.37,2013-04-06 19:17:00,
2013-04-06 15:22:00,48.4,16.7,29.92,SSE,157,8.1,8.1,28,0.00,CLR,,0.00,WeatherDisplay:10.37,2013-04-06 19:22:00,
2013-04-06 15:27:00,48.2,16.6,29.92,South,180,8.1,8.1,28,0.00,CLR,,0.00,WeatherDisplay:10.37,2013-04-06 19:27:00,
2013-04-06 15:32:00,48.2,16.6,29.92,South,180,8.1,8.1,28,0.00,CLR,,0.00,WeatherDisplay:10.37,2013-04-06 19:32:00,
2013-04-06 15:37:00,47.8,16.3,29.92,ENE,67,8.1,8.1,28,0.00,CLR,,0.00,WeatherDisplay:10.37,2013-04-06 19:37:00,
2013-04-06 15:42:00,48.2,16.6,29.91,SSE,157,8.1,8.1,28,0.00,CLR,,0.00,WeatherDisplay:10.37,2013-04-06 19:42:00,
2013-04-06 15:47:00,48.9,17.2,29.90,SE,135,8.1,8.1,28,0.00,CLR,,0.00,WeatherDisplay:10.37,2013-04-06 19:47:00,
2013-04-06 15:52:00,49.5,17.7,29.90,ESE,112,10.9,10.9,28,0.00,CLR,,0.00,WeatherDisplay:10.37,2013-04-06 19:52:00,
2013-04-06 15:58:00,49.8,18.0,29.83,SSW,202,10.9,10.9,28,0.00,CLR,,0.00,WeatherDisplay:10.37,2013-04-06 19:58:00,
2013-04-06 16:03:00,49.8,18.0,29.83,South,180,10.9,10.9,28,0.00,CLR,,0.00,WeatherDisplay:10.37,2013-04-06 20:03:00,
2013-04-06 16:08:00,50.5,18.6,29.83,SSE,157,5.8,5.8,28,0.00,CLR,,0.00,WeatherDisplay:10.37,2013-04-06 20:08:00,
2013-04-06 16:14:00,50.5,18.6,29.83,SSE,157,10.4,10.4,28,0.00,CLR,,0.00,WeatherDisplay:10.37,2013-04-06 20:14:00,
2013-04-06 16:19:00,50.4,18.4,29.83,South,180,10.4,10.4,28,0.00,CLR,,0.00,WeatherDisplay:10.37,2013-04-06 20:19:00,
2013-04-06 16:24:00,50.0,18.1,29.81,SE,135,10.4,10.4,28,0.00,CLR,,0.00,WeatherDisplay:10.37,2013-04-06 20:24:00,
2013-04-06 16:29:00,50.0,18.1,29.83,SSE,157,10.4,10.4,28,0.00,CLR,,0.00,WeatherDisplay:10.37,2013-04-06 20:29:00,
2013-04-06 16:34:00,50.0,18.1,29.81,SSE,157,10.4,10.4,28,0.00,CLR,,0.00,WeatherDisplay:10.37,2013-04-06 20:34:00,
2013-04-06 16:39:00,49.8,18.0,29.81,SW,225,10.4,10.4,28,0.00,CLR,,0.00,WeatherDisplay:10.37,2013-04-06 20:39:00,
2013-04-06 16:45:00,49.8,18.0,29.81,SSE,157,10.4,10.4,28,0.00,CLR,,0.00,WeatherDisplay:10.37,2013-04-06 20:45:00,
2013-04-06 16:50:00,49.6,17.8,29.83,SW,225,10.4,10.4,28,0.00,CLR,,0.00,WeatherDisplay:10.37,2013-04-06 20:50:00,
2013-04-06 16:55:00,49.6,17.8,29.81,South,180,10.4,10.4,28,0.00,CLR,,0.00,WeatherDisplay:10.37,2013-04-06 20:55:00,
2013-04-06 17:00:00,49.6,17.8,29.81,South,180,10.4,10.4,28,0.00,CLR,,0.00,WeatherDisplay:10.37,2013-04-06 21:00:00,
2013-04-06 17:05:00,49.6,17.8,29.80,South,180,10.4,10.4,28,0.00,CLR,,0.00,WeatherDisplay:10.37,2013-04-06 21:05:00,
2013-04-06 17:10:00,48.6,16.9,29.78,SE,135,9.7,9.7,28,0.00,CLR,,0.00,WeatherDisplay:10.37,2013-04-06 21:10:00,
2013-04-06 17:15:00,48.4,16.7,29.80,SSE,157,9.7,9.7,28,0.00,CLR,,0.00,WeatherDisplay:10.37,2013-04-06 21:15:00,
2013-04-06 17:20:00,48.4,16.7,29.83,SSE,157,9.7,9.7,28,0.00,CLR,,0.00,WeatherDisplay:10.37,2013-04-06 21:20:00,
2013-04-06 17:25:00,48.4,16.7,29.81,East,90,9.7,9.7,28,0.00,CLR,,0.00,WeatherDisplay:10.37,2013-04-06 21:25:00,
2013-04-06 17:30:00,48.6,16.9,29.81,SSE,157,9.7,9.7,28,0.00,CLR,,0.00,WeatherDisplay:10.37,2013-04-06 21:30:00,
2013-04-06 17:35:00,48.7,17.0,29.81,SSW,202,9.7,9.7,28,0.00,CLR,,0.00,WeatherDisplay:10.37,2013-04-06 21:35:00,
2013-04-06 17:40:00,49.1,17.3,29.78,SSW,202,11.6,11.6,28,0.00,CLR,,0.00,WeatherDisplay:10.37,2013-04-06 21:40:00,
2013-04-06 17:45:00,49.1,17.3,29.81,South,180,11.6,11.6,28,0.00,CLR,,0.00,WeatherDisplay:10.37,2013-04-06 21:45:00,
2013-04-06 17:50:00,48.9,17.2,29.81,SSE,157,11.6,11.6,28,0.00,CLR,,0.00,WeatherDisplay:10.37,2013-04-06 21:50:00,
2013-04-06 17:55:00,49.1,17.3,29.80,SSE,157,11.6,11.6,28,0.00,CLR,,0.00,WeatherDisplay:10.37,2013-04-06 21:55:00,
2013-04-06 18:00:00,48.7,17.0,29.78,SE,135,11.6,11.6,28,0.00,CLR,,0.00,WeatherDisplay:10.37,2013-04-06 22:00:00,
2013-04-06 18:05:00,48.6,16.9,29.80,SSE,157,11.6,11.6,28,0.00,CLR,,0.00,WeatherDisplay:10.37,2013-04-06 22:05:00,
2013-04-06 18:10:00,48.6,16.9,29.80,SSE,157,5.8,5.8,28,0.00,CLR,,0.00,WeatherDisplay:10.37,2013-04-06 22:10:00,
2013-04-06 18:15:00,48.0,16.4,29.80,South,180,7.1,7.1,28,0.00,CLR,,0.00,WeatherDisplay:10.37,2013-04-06 22:15:00,
2013-04-06 18:20:00,48.2,16.6,29.78,SSE,157,7.1,7.1,28,0.00,CLR,,0.00,WeatherDisplay:10.37,2013-04-06 22:20:00,
2013-04-06 18:25:00,48.2,16.6,29.78,SSE,157,9.2,9.2,28,0.00,CLR,,0.00,WeatherDisplay:10.37,2013-04-06 22:25:00,
2013-04-06 18:30:00,48.0,16.4,29.78,SSE,157,10.7,10.7,28,0.00,CLR,,0.00,WeatherDisplay:10.37,2013-04-06 22:30:00,
2013-04-06 18:35:00,48.0,16.4,29.73,South,180,10.7,10.7,28,0.00,CLR,,0.00,WeatherDisplay:10.37,2013-04-06 22:35:00,
2013-04-06 18:40:00,47.8,16.3,29.73,South,180,10.7,10.7,28,0.00,CLR,,0.00,WeatherDisplay:10.37,2013-04-06 22:40:00,
2013-04-06 18:45:00,48.0,16.4,29.73,South,180,10.7,10.7,28,0.00,CLR,,0.00,WeatherDisplay:10.37,2013-04-06 22:45:00,
2013-04-06 18:50:00,48.0,16.4,29.74,East,90,10.7,10.7,28,0.00,CLR,,0.00,WeatherDisplay:10.37,2013-04-06 22:50:00,
2013-04-06 18:55:00,48.0,16.4,29.74,SSE,157,10.7,10.7,28,0.00,CLR,,0.00,WeatherDisplay:10.37,2013-04-06 22:55:00,
2013-04-06 19:00:00,48.0,16.4,29.73,SSE,157,10.7,10.7,28,0.00,CLR,,0.00,WeatherDisplay:10.37,2013-04-06 23:00:00,
2013-04-06 19:05:00,48.2,16.6,29.73,SSE,157,10.7,10.7,28,0.00,CLR,,0.00,WeatherDisplay:10.37,2013-04-06 23:05:00,
2013-04-06 19:11:00,48.2,16.6,29.73,SSE,157,6.9,6.9,28,0.00,CLR,,0.00,WeatherDisplay:10.37,2013-04-06 23:11:00,
2013-04-06 19:16:00,47.8,16.3,29.73,SSE,157,6.9,6.9,28,0.00,CLR,,0.00,WeatherDisplay:10.37,2013-04-06 23:16:00,
2013-04-06 19:21:00,47.7,16.1,29.73,SW,225,6.9,6.9,28,0.00,CLR,,0.00,WeatherDisplay:10.37,2013-04-06 23:21:00,
2013-04-06 19:26:00,47.5,15.9,29.72,SSE,157,8.1,8.1,28,0.00,CLR,,0.00,WeatherDisplay:10.37,2013-04-06 23:26:00,
2013-04-06 19:31:00,47.7,16.1,29.73,SSE,157,8.1,8.1,28,0.00,CLR,,0.00,WeatherDisplay:10.37,2013-04-06 23:31:00,
2013-04-06 19:36:00,47.7,16.1,29.73,SSE,157,8.4,8.4,28,0.00,CLR,,0.00,WeatherDisplay:10.37,2013-04-06 23:36:00,
2013-04-06 19:42:00,47.3,15.8,29.72,ESE,112,8.4,8.4,28,0.00,CLR,,0.00,WeatherDisplay:10.37,2013-04-06 23:42:00,
2013-04-06 19:47:00,46.9,15.5,29.72,SSE,157,8.4,8.4,28,0.00,CLR,,0.00,WeatherDisplay:10.37,2013-04-06 23:47:00,
2013-04-06 19:52:00,46.6,15.2,29.72,SE,135,8.4,8.4,28,0.00,CLR,,0.00,WeatherDisplay:10.37,2013-04-06 23:52:00,
2013-04-06 19:57:00,46.0,14.7,29.71,SE,135,9.2,9.2,28,0.00,CLR,,0.00,WeatherDisplay:10.37,2013-04-06 23:57:00,
2013-04-06 20:03:00,46.0,14.7,29.69,ESE,112,9.2,9.2,28,0.00,CLR,,0.00,WeatherDisplay:10.37,2013-04-07 00:03:00,
2013-04-06 20:08:00,45.3,14.1,29.69,ESE,112,6.9,6.9,28,0.00,CLR,,0.00,WeatherDisplay:10.37,2013-04-07 00:08:00,
2013-04-06 20:13:00,45.0,13.8,29.74,ESE,112,6.9,6.9,28,0.00,CLR,,0.00,WeatherDisplay:10.37,2013-04-07 00:13:00,
2013-04-06 20:18:00,44.8,13.6,29.73,SSE,157,6.9,6.9,28,0.00,CLR,,0.00,WeatherDisplay:10.37,2013-04-07 00:18:00,
2013-04-06 20:23:00,44.8,13.6,29.73,SSE,157,6.9,6.9,28,0.00,CLR,,0.00,WeatherDisplay:10.37,2013-04-07 00:23:00,
2013-04-06 20:29:00,44.6,13.5,29.73,SSE,157,6.9,6.9,28,0.00,CLR,,0.00,WeatherDisplay:10.37,2013-04-07 00:29:00,
2013-04-06 20:34:00,44.6,13.5,29.74,SSE,157,6.9,6.9,28,0.00,CLR,,0.00,WeatherDisplay:10.37,2013-04-07 00:34:00,
2013-04-06 20:39:00,44.6,13.5,29.67,SSE,157,5.0,7.0,28,0.00,CLR,CLR,0.00,WeatherDisplay:10.37,2013-04-07 00:39:00,
2013-04-06 20:44:00,44.4,13.3,29.68,SSE,157,5.0,7.0,28,0.00,CLR,CLR,0.00,WeatherDisplay:10.37,2013-04-07 00:44:00,
2013-04-06 20:50:00,44.4,13.3,29.69,SSE,148,1.0,7.0,28,0.00,CLR,CLR,0.00,WeatherDisplay:10.37,2013-04-07 00:50:00,
2013-04-06 20:55:00,44.6,13.5,29.68,NE,45,6.9,6.9,28,0.00,CLR,,0.00,WeatherDisplay:10.37,2013-04-07 00:55:00,
2013-04-06 21:00:00,44.6,13.5,29.67,East,90,6.9,6.9,28,0.00,CLR,,0.00,WeatherDisplay:10.37,2013-04-07 01:00:00,
2013-04-06 21:06:00,44.8,13.6,29.67,East,90,6.9,6.9,28,0.00,CLR,,0.00,WeatherDisplay:10.37,2013-04-07 01:06:00,
2013-04-06 21:11:00,44.8,13.6,29.68,SE,135,4.9,4.9,28,0.00,CLR,,0.00,WeatherDisplay:10.37,2013-04-07 01:11:00,
2013-04-06 21:16:00,45.1,13.9,29.68,SE,135,4.9,4.9,28,0.00,CLR,,0.00,WeatherDisplay:10.37,2013-04-07 01:16:00,
2013-04-06 21:21:00,45.3,14.1,29.68,SE,135,7.3,7.3,28,0.00,CLR,,0.00,WeatherDisplay:10.37,2013-04-07 01:21:00,
2013-04-06 21:27:00,45.5,14.2,29.68,South,180,7.3,7.3,28,0.00,CLR,,0.00,WeatherDisplay:10.37,2013-04-07 01:27:00,
2013-04-06 21:32:00,45.7,14.4,29.67,South,180,7.3,7.3,28,0.00,CLR,,0.00,WeatherDisplay:10.37,2013-04-07 01:32:00,
2013-04-06 21:37:00,45.7,14.4,29.67,SSW,202,7.3,7.3,28,0.00,CLR,,0.00,WeatherDisplay:10.37,2013-04-07 01:37:00,
2013-04-06 21:42:00,45.7,14.4,29.68,SSE,157,7.3,7.3,28,0.00,CLR,,0.00,WeatherDisplay:10.37,2013-04-07 01:42:00,
2013-04-06 21:47:00,45.9,14.5,29.67,South,180,8.1,8.1,28,0.00,CLR,,0.00,WeatherDisplay:10.37,2013-04-07 01:47:00,
2013-04-06 21:53:00,45.9,14.5,29.67,South,180,8.1,8.1,28,0.00,CLR,,0.00,WeatherDisplay:10.37,2013-04-07 01:53:00,
2013-04-06 21:58:00,45.9,14.5,29.67,SE,135,8.1,8.1,28,0.00,CLR,,0.00,WeatherDisplay:10.37,2013-04-07 01:58:00,
2013-04-06 22:03:00,45.9,14.5,29.67,SE,135,8.1,8.1,28,0.00,CLR,,0.00,WeatherDisplay:10.37,2013-04-07 02:03:00,
2013-04-06 22:08:00,45.9,14.5,29.66,SE,135,4.6,4.6,28,0.00,CLR,,0.00,WeatherDisplay:10.37,2013-04-07 02:08:00,
2013-04-06 22:13:00,45.9,14.5,29.67,SE,135,4.7,4.7,28,0.00,CLR,,0.00,WeatherDisplay:10.37,2013-04-07 02:13:00,
2013-04-06 22:18:00,45.9,14.5,29.67,SSW,202,8.1,8.1,28,0.00,CLR,,0.00,WeatherDisplay:10.37,2013-04-07 02:18:00,
2013-04-06 22:23:00,45.9,14.5,29.65,SE,135,8.1,8.1,28,0.00,CLR,,0.00,WeatherDisplay:10.37,2013-04-07 02:23:00,
2013-04-06 22:28:00,45.7,14.4,29.64,SE,135,8.1,8.1,28,0.00,CLR,,0.00,WeatherDisplay:10.37,2013-04-07 02:28:00,
2013-04-06 22:33:00,45.7,14.4,29.63,SE,135,8.1,8.1,28,0.00,CLR,,0.00,WeatherDisplay:10.37,2013-04-07 02:33:00,
2013-04-06 22:38:00,45.7,14.4,29.62,SE,135,8.1,8.1,28,0.00,CLR,,0.00,WeatherDisplay:10.37,2013-04-07 02:38:00,
2013-04-06 22:43:00,45.7,14.4,29.66,SE,135,9.2,9.2,28,0.00,CLR,,0.00,WeatherDisplay:10.37,2013-04-07 02:43:00,
2013-04-06 22:48:00,45.9,14.5,29.67,South,180,9.2,9.2,28,0.00,CLR,,0.00,WeatherDisplay:10.37,2013-04-07 02:48:00,
2013-04-06 22:53:00,45.9,14.5,29.66,SSE,157,9.2,9.2,28,0.00,CLR,,0.00,WeatherDisplay:10.37,2013-04-07 02:53:00,
2013-04-06 22:58:00,46.0,14.7,29.60,South,180,9.2,9.2,28,0.00,CLR,,0.00,WeatherDisplay:10.37,2013-04-07 02:58:00,
2013-04-06 23:03:00,46.0,14.7,29.60,South,180,9.2,9.2,28,0.00,CLR,,0.00,WeatherDisplay:10.37,2013-04-07 03:03:00,
2013-04-06 23:08:00,46.0,14.7,29.60,SSE,157,6.3,6.3,28,0.00,CLR,,0.00,WeatherDisplay:10.37,2013-04-07 03:08:00,
2013-04-06 23:13:00,46.2,14.9,29.59,SSE,157,6.9,6.9,28,0.00,CLR,,0.00,WeatherDisplay:10.37,2013-04-07 03:13:00,
2013-04-06 23:18:00,46.2,14.9,29.58,SSE,157,6.9,6.9,28,0.00,CLR,,0.00,WeatherDisplay:10.37,2013-04-07 03:18:00,
2013-04-06 23:23:00,46.4,15.0,29.59,SSE,157,6.9,6.9,28,0.00,CLR,,0.00,WeatherDisplay:10.37,2013-04-07 03:23:00,
2013-04-06 23:28:00,46.6,15.2,29.59,South,180,6.9,6.9,28,0.00,CLR,,0.00,WeatherDisplay:10.37,2013-04-07 03:28:00,
2013-04-06 23:33:00,46.6,15.2,29.59,South,180,6.9,8.9,28,0.00,CLR,,0.00,WeatherDisplay:10.37,2013-04-07 03:33:00,
2013-04-06 23:38:00,46.8,15.3,29.58,South,180,9.2,9.2,28,0.00,CLR,,0.00,WeatherDisplay:10.37,2013-04-07 03:38:00,
2013-04-06 23:44:00,46.9,15.5,29.58,SW,225,9.2,9.2,28,0.00,CLR,,0.00,WeatherDisplay:10.37,2013-04-07 03:44:00,
2013-04-06 23:49:00,46.9,15.5,29.58,SW,225,9.2,9.2,28,0.00,CLR,,0.00,WeatherDisplay:10.37,2013-04-07 03:49:00,
2013-04-06 23:54:00,47.3,15.8,29.58,SW,225,9.2,9.2,28,0.00,CLR,,0.00,WeatherDisplay:10.37,2013-04-07 03:54:00,
2013-04-06 23:59:00,47.4,15.8,29.57,SW,234,5.0,9.0,28,0.00,CLR,CLR,0.00,WeatherDisplay:10.37,2013-04-07 03:59:00,